Location: Rokycany
(49.7330°N, 13.6000°E)
Time: 20:19:09
(UTC+02:00)

ISS - Pass Details

Date: 02 April 2019
Orbit: 408 x 410 km, 51.6° (Epoch: 25 April)

Event Time Altitude Azimuth Distance (km) Brightness Sun altitude
Rises 20:55:25 0° 287° (WNW) 2,339 2.0 -12.8°
Reaches altitude 10° 20:57:30 10° 287° (WNW) 1,475 0.5 -13.1°
Maximum altitude 21:00:49 84° 199° (SSW) 416 -3.9 -13.6°
Enters shadow 21:02:25 28° 113° (ESE) 799 -2.9 -13.8°
